• In Portugal
  • List of Countries
  • For 7 days
  • Water Temperature
  • Satellite Maps
  • Weather Map
  • Weather Widgets
  • user-avatar
    Login

    Hourly Weather Kalat

    Today, 16 July, Monday

    Time Temperature Precipitation Wind Pressure Humidity
    00:00 +12°C° 0 mm 2 mps 479 mmHg 55%
    01:00 +10°C° 0 mm 2 mps 479 mmHg 57%
    02:00 +9°C° 0 mm 2 mps 478 mmHg 59%
    03:00 +9°C° 0 mm 2 mps 478 mmHg 60%
    04:00 +9°C° 0 mm 1 mps 478 mmHg 61%
    05:00 +9°C° 0 mm 1 mps 477 mmHg 62%
    06:00 +10°C° 0 mm 1 mps 478 mmHg 55%
    07:00 +11°C° 0 mm 1 mps 479 mmHg 47%
    08:00 +13°C° 0 mm 1 mps 480 mmHg 39%
    09:00 +14°C° 0 mm 2 mps 481 mmHg 35%
    10:00 +15°C° 0 mm 2 mps 482 mmHg 30%
    11:00 +17°C° 0 mm 2 mps 483 mmHg 25%
    12:00 +18°C° 0 mm 3 mps 483 mmHg 25%
    13:00 +18°C° 0 mm 3 mps 483 mmHg 25%
    14:00 +19°C° 0 mm 4 mps 483 mmHg 24%
    15:00 +19°C° 0.2 mm 4 mps 483 mmHg 26%
    16:00 +19°C° 0.2 mm 4 mps 483 mmHg 28%
    17:00 +18°C° 0.2 mm 4 mps 483 mmHg 30%
    18:00 +17°C° 0.1 mm 4 mps 482 mmHg 33%
    19:00 +16°C° 0.1 mm 3 mps 481 mmHg 37%
    20:00 +14°C° 0.1 mm 3 mps 481 mmHg 40%
    21:00 +13°C° 0 mm 3 mps 480 mmHg 42%
    22:00 +13°C° 0 mm 2 mps 480 mmHg 44%
    23:00 +12°C° 0 mm 2 mps 480 mmHg 46%

    Tomorrow, 17 July, Tuesday

    Time Temperature Precipitation Wind Pressure Humidity
    00:00 +12°C° 0 mm 2 mps 479 mmHg 48%
    01:00 +10°C° 0 mm 2 mps 479 mmHg 49%
    02:00 +10°C° 0 mm 2 mps 478 mmHg 51%
    03:00 +9°C° 0 mm 2 mps 478 mmHg 52%
    04:00 +9°C° 0 mm 2 mps 478 mmHg 54%
    05:00 +8°C° 0 mm 2 mps 478 mmHg 55%
    06:00 +10°C° 0 mm 2 mps 479 mmHg 49%
    07:00 +12°C° 0 mm 2 mps 480 mmHg 43%
    08:00 +13°C° 0 mm 2 mps 481 mmHg 37%
    09:00 +14°C° 0 mm 2 mps 481 mmHg 34%
    10:00 +14°C° 0 mm 3 mps 482 mmHg 31%
    11:00 +17°C° 0 mm 3 mps 483 mmHg 28%
    12:00 +17°C° 0 mm 3 mps 483 mmHg 28%
    13:00 +18°C° 0 mm 4 mps 483 mmHg 28%
    14:00 +19°C° 0 mm 4 mps 483 mmHg 28%
    15:00 +18°C° 0.1 mm 4 mps 483 mmHg 30%
    16:00 +18°C° 0.1 mm 4 mps 483 mmHg 32%
    17:00 +17°C° 0.1 mm 4 mps 482 mmHg 34%
    18:00 +15°C° 0 mm 4 mps 482 mmHg 37%
    19:00 +14°C° 0 mm 4 mps 481 mmHg 41%
    20:00 +13°C° 0 mm 3 mps 481 mmHg 44%
    21:00 +12°C° 0 mm 3 mps 481 mmHg 47%
    22:00 +12°C° 0 mm 2 mps 480 mmHg 49%
    23:00 +12°C° 0 mm 2 mps 480 mmHg 52%

    Day after tomorrow, 18 July, Wednesday

    Time Temperature Precipitation Wind Pressure Humidity
    00:00 +10°C° 0 mm 2 mps 480 mmHg 54%
    01:00 +10°C° 0 mm 2 mps 479 mmHg 56%
    02:00 +9°C° 0 mm 2 mps 479 mmHg 58%
    03:00 +9°C° 0 mm 2 mps 478 mmHg 59%
    04:00 +8°C° 0 mm 2 mps 478 mmHg 61%
    05:00 +8°C° 0 mm 2 mps 478 mmHg 62%
    06:00 +9°C° 0 mm 2 mps 479 mmHg 54%
    07:00 +10°C° 0 mm 2 mps 480 mmHg 47%
    08:00 +11°C° 0 mm 3 mps 480 mmHg 39%
    09:00 +13°C° 0 mm 3 mps 481 mmHg 35%
    10:00 +14°C° 0 mm 3 mps 482 mmHg 30%
    11:00 +16°C° 0 mm 3 mps 483 mmHg 26%
    12:00 +17°C° 0 mm 3 mps 483 mmHg 25%
    13:00 +18°C° 0 mm 4 mps 483 mmHg 25%
    14:00 +18°C° 0 mm 4 mps 483 mmHg 25%
    15:00 +18°C° 0 mm 4 mps 483 mmHg 26%
    16:00 +18°C° 0 mm 4 mps 483 mmHg 28%
    17:00 +17°C° 0 mm 4 mps 483 mmHg 30%
    18:00 +15°C° 0 mm 4 mps 482 mmHg 33%
    19:00 +14°C° 0 mm 4 mps 481 mmHg 36%
    20:00 +13°C° 0 mm 3 mps 481 mmHg 40%
    21:00 +12°C° 0 mm 3 mps 481 mmHg 42%
    22:00 +12°C° 0 mm 2 mps 480 mmHg 45%
    23:00 +10°C° 0 mm 2 mps 480 mmHg 47%

    19 July, Thursday

    Time Temperature Precipitation Wind Pressure Humidity
    00:00 +10°C° 0 mm 2 mps 479 mmHg 49%
    01:00 +9°C° 0 mm 2 mps 479 mmHg 51%
    02:00 +9°C° 0 mm 2 mps 478 mmHg 52%
    03:00 +8°C° 0 mm 2 mps 478 mmHg 53%
    04:00 +8°C° 0 mm 2 mps 477 mmHg 54%
    05:00 +7°C° 0 mm 2 mps 477 mmHg 55%
    06:00 +8°C° 0 mm 2 mps 478 mmHg 47%
    07:00 +10°C° 0 mm 2 mps 479 mmHg 39%
    08:00 +12°C° 0 mm 2 mps 480 mmHg 31%
    09:00 +14°C° 0 mm 2 mps 481 mmHg 27%
    10:00 +15°C° 0 mm 2 mps 481 mmHg 24%
    11:00 +16°C° 0 mm 3 mps 482 mmHg 20%
    12:00 +17°C° 0 mm 3 mps 482 mmHg 20%
    13:00 +18°C° 0 mm 3 mps 483 mmHg 21%
    14:00 +19°C° 0 mm 4 mps 483 mmHg 21%
    15:00 +18°C° 0 mm 4 mps 483 mmHg 24%
    16:00 +18°C° 0 mm 4 mps 482 mmHg 26%
    17:00 +18°C° 0 mm 4 mps 482 mmHg 29%
    18:00 +17°C° 0 mm 4 mps 481 mmHg 33%
    19:00 +14°C° 0 mm 3 mps 481 mmHg 38%
    20:00 +13°C° 0 mm 3 mps 480 mmHg 43%
    21:00 +12°C° 0 mm 3 mps 480 mmHg 45%
    22:00 +12°C° 0 mm 2 mps 479 mmHg 47%
    23:00 +12°C° 0 mm 2 mps 479 mmHg 50%

    20 July, Friday

    Time Temperature Precipitation Wind Pressure Humidity
    00:00 +10°C° 0 mm 2 mps 478 mmHg 51%
    01:00 +9°C° 0 mm 2 mps 478 mmHg 53%
    02:00 +9°C° 0 mm 2 mps 477 mmHg 55%
    03:00 +8°C° 0 mm 2 mps 477 mmHg 56%
    04:00 +8°C° 0 mm 2 mps 477 mmHg 58%
    05:00 +7°C° 0 mm 2 mps 476 mmHg 59%
    06:00 +9°C° 0 mm 2 mps 477 mmHg 54%
    07:00 +10°C° 0 mm 2 mps 478 mmHg 49%
    08:00 +12°C° 0 mm 2 mps 479 mmHg 43%
    09:00 +14°C° 0 mm 2 mps 480 mmHg 41%
    10:00 +14°C° 0 mm 3 mps 481 mmHg 38%
    11:00 +17°C° 0 mm 3 mps 482 mmHg 35%
    12:00 +17°C° 0 mm 3 mps 482 mmHg 34%
    13:00 +18°C° 0 mm 4 mps 482 mmHg 33%
    14:00 +19°C° 0 mm 4 mps 483 mmHg 32%
    15:00 +18°C° 0.1 mm 4 mps 482 mmHg 34%
    16:00 +18°C° 0.1 mm 4 mps 482 mmHg 36%
    17:00 +18°C° 0.1 mm 4 mps 482 mmHg 37%
    18:00 +15°C° 0 mm 4 mps 481 mmHg 41%
    19:00 +14°C° 0 mm 4 mps 481 mmHg 44%
    20:00 +13°C° 0 mm 3 mps 480 mmHg 47%
    21:00 +12°C° 0 mm 3 mps 480 mmHg 49%
    22:00 +11°C° 0 mm 3 mps 480 mmHg 51%
    23:00 +12°C° 0 mm 2 mps 479 mmHg 53%

    21 July, Saturday

    Time Temperature Precipitation Wind Pressure Humidity
    00:00 +10°C° 0 mm 2 mps 479 mmHg 54%
    01:00 +9°C° 0 mm 2 mps 478 mmHg 56%
    02:00 +9°C° 0 mm 2 mps 478 mmHg 57%
    03:00 +8°C° 0 mm 2 mps 477 mmHg 59%
    04:00 +8°C° 0 mm 2 mps 477 mmHg 61%
    05:00 +8°C° 0 mm 2 mps 477 mmHg 63%
    06:00 +9°C° 0 mm 2 mps 478 mmHg 57%
    07:00 +10°C° 0 mm 2 mps 479 mmHg 51%
    08:00 +12°C° 0 mm 2 mps 480 mmHg 45%
    09:00 +13°C° 0 mm 3 mps 480 mmHg 40%
    10:00 +14°C° 0 mm 3 mps 481 mmHg 34%
    11:00 +16°C° 0 mm 3 mps 482 mmHg 29%
    12:00 +17°C° 0 mm 3 mps 482 mmHg 28%
    13:00 +18°C° 0 mm 4 mps 482 mmHg 27%
    14:00 +19°C° 0 mm 4 mps 483 mmHg 26%
    15:00 +18°C° 0 mm 4 mps 483 mmHg 27%
    16:00 +18°C° 0 mm 4 mps 482 mmHg 29%
    17:00 +18°C° 0 mm 4 mps 482 mmHg 31%
    18:00 +15°C° 0 mm 4 mps 482 mmHg 34%
    19:00 +14°C° 0 mm 3 mps 481 mmHg 38%
    20:00 +13°C° 0 mm 3 mps 481 mmHg 42%
    21:00 +12°C° 0 mm 3 mps 480 mmHg 44%
    22:00 +12°C° 0 mm 2 mps 480 mmHg 45%
    23:00 +12°C° 0 mm 2 mps 479 mmHg 47%
    Show more